Home > Time Zones > World Clock > Weather > Iran > Rasht > Past weeks

Flag for Iran Weather past 2 weeks in Rasht, Iran

Now
64 °F

Fog.


Feels Like: 64 °F
Forecast: 49 / 75 °F
Wind: 5 mph from Northwest

Location: Rasht Airport


UV Index: 5 (Moderate)

Visibility: 3 mi


Pressure: 30.12 "Hg

Humidity: 83%

Dew point: 59 °F

Location of RashtLocation

Historic Weather in Rasht

°F

Rasht temperature yesterday

Maximum temperature yesterday: 70 °F (at 1:30 PM)
Minimum temperature yesterday: 54 °F (at 6:00 AM)
Average temperature yesterday: 63 °F

Past Weeks' High & Low Weather Summary

 TemperatureHumidityPressure
High70 °F (Apr 16, 1:30 PM)100% (Apr 3, 4:30 AM)30.54 "Hg (Apr 3, 4:30 AM)
Low41 °F (Apr 5, 6:30 AM)21% (Apr 2, 2:30 PM)29.74 "Hg (Apr 2, 3:30 PM)
Average55 °F81%30.06 "Hg
* Reported Apr 2 10:30 AM — Apr 17 11:00 AM, Rasht, Weather by CustomWeather, © 2014

Note: Actual official high and low records may vary slightly from our data, if they occured in-between our weather recording intervals... More about our weather records

Advertising

Historic Weather Conditions — Data for Previous 24 hours

 ConditionsComfort  
Time TempWeatherWind HumidityBarometerVisibility
11:00 AM
Apr 17
63 °FFog.2 mph77%30.12 "Hg3 mi
10:30 AM61 °FFog.2 mph83%30.12 "Hg3 mi
10:00 AM59 °FFog.No wind88%30.12 "Hg3 mi
9:30 AM59 °FFog.2 mph88%30.12 "Hg2 mi
9:00 AM57 °FFog.5 mph100%30.12 "Hg2 mi
8:30 AM57 °FFog.5 mph100%30.12 "Hg2 mi
8:00 AM55 °FFog.No wind100%30.09 "Hg1 mi
7:30 AM55 °FFog.No wind100%30.09 "Hg1 mi
7:00 AM55 °FFog.5 mph100%30.09 "Hg1 mi
6:30 AM55 °FFog.No wind100%30.09 "Hg1 mi
5:30 AM55 °FFog.No wind100%30.07 "Hg1 mi
4:30 AM57 °FFog.No wind100%30.07 "Hg1 mi
8:00 PM
Apr 16
59 °FFog.No wind88%30.01 "Hg2 mi
7:30 PM59 °FFog.7 mph88%30.01 "Hg2 mi
7:00 PM61 °FFog.5 mph94%29.98 "Hg2 mi
6:30 PM64 °FHaze.5 mph88%29.98 "Hg2 mi
6:00 PM68 °FHaze.9 mph78%29.98 "Hg2 mi
5:30 PM68 °FHaze.9 mph78%29.98 "Hg2 mi
5:00 PM68 °FHaze.7 mph64%30.01 "Hg2 mi
4:30 PM68 °FHaze.7 mph64%30.01 "Hg2 mi
4:00 PM70 °FHaze.7 mph69%30.01 "Hg2 mi
3:30 PM70 °FHaze.7 mph69%30.01 "Hg2 mi
3:00 PM70 °FHaze.7 mph69%30.01 "Hg2 mi
2:30 PM70 °FHaze.7 mph69%30.01 "Hg2 mi
2:00 PM70 °FHaze.7 mph69%30.01 "Hg2 mi
1:30 PM70 °FHaze.7 mph69%30.01 "Hg2 mi
1:00 PM68 °FHaze.No wind64%30.04 "Hg2 mi
12:30 PM68 °FHaze.No wind64%30.04 "Hg2 mi
12:00 PM68 °FHaze.No wind64%30.04 "Hg2 mi
Weather by CustomWeather, © 2014

See weather overview